SCP
0 0 0 0 0 0 0 0 0 0 0 0 0 0 0 0 0 0 0 0 0 0 0 0 0 0 0 0 0 0 0 0 0 0 0 0 0 0 0 0 0 0 0 0
0 0 0 0 0 0 0 0 0 0 0 0 0 0 0 0 0 0 0 0 0 0 0 0 0 0 0 0 0 0 0 0 0 0 0 0 0 0 0 0 0 0 0 0
0 0 0 0 0 0 0 0 0 0 0 0 0 0 0 0 0 0 0 0 0 0 0 0 0 0 0 0 0 0 0 0 0 0 0 0 0 0 0 0 0 0 0 0
0 0 0 0 0 0 0 0 0 0 0 0 0 0 0 0 0 0 0 0 0 0 0 0 0 0 0 0 0 0 0 0 0 0 0 0 0 0 0 0 0 0 0 0
0 0 0 0 0 0 0 0 0 0 0 0 0 0 0 0 0 0 0 0 0 0 0 0 0 0 0 0 0 0 0 0 0 0 0 0 0 0 0 0 0 0 0 0
0 0 0 0 0 0 0 0 0 0 0 0 0 0 0 0 0 0 0 0 0 0 0 0 0 0 0 0 0 0 0 0 0 0 0 0 0 0 0 0 0 0 0 0
0 0 0 0 0 0 0 0 0 0 0 0 0 0 0 0 0 0 0 0 0 0 0 0 0 0 0 0 0 0 0 0 0 0 0 0 0 0 0 0 0 0 0 0
0 0 0 1 0 0 0 0 0 0 0 0 0 0 0 0 0 0 0 0 0 0 0 0 0 0 0 0 0 0 0 0 0 0 0 0 0 0 0 0 0 0 0 0
0 0 0 0 0 0 0 0 0 0 0 0 0 0 0 0 0 0 0 0 0 0 0 0 0 0 0 0 0 0 0 0 0 0 0 0 0 0 0 0 0 0 0 0
0 0 0 0 0 0 0 0 0 0 0 0 0 0 0 0 0 0 0 0 0 0 0 0 0 0 0 0 0 0 0 0 0 0 0 0 0 0 0 0 0 0 0 0
0 0 0 0 0 0 0 0 0 0 0 0 0 0 0 0 0 0 0 0 0 0 0 0 0 0 0 0 0 0 0 0 0 0 0 0 0 0 0 0 0 0 0 0
0 0 0 0 0 0 0 0 0 0 0 0 0 0 0 0 0 0 0 0 0 0 0 0 0 0 0 0 0 0 0 0 0 0 0 0 0 0 0 0 0 0 0 0
0 0 0 0 0 0 0 0 0 0 0 0 0 0 0 0 0 0 0 0 0 0 0 0 0 0 0 0 0 0 0 0 0 0 0 0 0 0 0 0 0 0 0 0
0 0 0 0 0 0 0 0 0 0 0 0 0 0 0 0 0 0 0 0 0 0 0 0 0 0 0 0 0 0 0 0 0 0 0 0 0 0 0 0 0 0 0 0
0 0 0 0 0 0 0 0 0 0 0 0 0 0 0 0 0 0 0 0 0 0 0 0 0 0 0 0 0 0 0 0 0 0 0 0 0 0 0 0 0 0 0 0
0 0 0 0 0 0 0 0 0 0 0 0 0 0 0 0 0 0 0 0 0 0 0 0 0 0 0 0 0 0 0 0 0 0 0 0 0 0 0 0 0 0 0 -0
0 0 0 0 0 0 0 0 0 0 0 0 0 0 0 0 0 0 0 0 0 0 0 0 0 0 0 0 0 0 0 0 0 0 0 0 0 0 0 0 0 0 0 -0
0 0 0 0 0 0 0 0 0 0 0 0 0 0 0 0 0 0 0 0 0 0 0 0 0 0 0 0 0 0 0 0 0 0 0 0 0 0 0 0 0 0 0 -0
0 0 0 0 0 0 0 0 0 0 0 0 0 0 0 0 0 0 0 0 0 0 0 0 0 0 0 0 0 0 0 0 0 0 0 0 0 0 0 0 0 0 0 -0
0 0 0 0 0 0 0 0 0 0 0 0 0 0 0 0 0 0 0 0 0 0 0 0 0 0 0 0 0 0 0 0 0 0 0 0 0 0 0 0 0 0 0 -0
0 0 0 0 0 0 0 0 0 0 0 0 0 0 0 0 0 0 0 0 0 0 0 0 0 0 0 0 0 0 0 0 0 0 0 0 0 0 0 0 0 0 0 -0
0 0 0 0 0 0 0 0 0 0 0 0 0 0 0 0 0 0 0 0 0 0 0 0 0 0 0 0 0 0 0 0 0 0 0 0 0 0 0 0 0 0 0 -0
0 0 0 0 0 0 0 0 0 0 0 0 0 0 0 0 0 0 0 0 0 0 0 0 0 0 0 0 0 0 0 0 0 0 0 0 0 0 0 0 0 0 0 0
0 0 0 0 0 0 0 0 0 0 0 0 0 0 0 0 0 0 0 0 0 0 0 0 0 0 0 0 0 0 0 0 0 0 0 0 0 0 0 0 0 0 0 0
0 0 0 0 0 0 0 0 0 0 0 0 0 0 0 0 0 0 0 0 0 0 0 0 0 0 0 0 0 0 0 0 0 0 0 0 0 0 0 0 0 0 0 0
0 0 0 0 0 0 0 0 0 0 0 0 0 0 0 0 0 0 0 0 0 0 0 0 0 0 0 0 0 0 0 0 0 0 0 0 0 0 0 0 0 0 0 0
0 0 0 0 0 0 0 0 0 0 0 0 0 0 0 0 0 0 0 0 0 0 0 0 0 0 0 0 0 0 0 0 0 0 0 0 0 0 0 0 0 0 0 0
Wind_Speed_500mb
70 67 65 60 57 52 42 27 5 16 24 9 6 7 11 4 8 10 8 7 14 13 12 9 8 11 5 10 3 6 1 4 10 21 33 6 15 10 6 2 19 23 30 47
75 74 75 72 71 60 45 15 20 20 35 9 8 6 6 7 8 8 7 10 6 5 12 6 11 9 18 15 7 10 7 5 9 19 5 0 8 15 22 22 24 32 26 27
87 86 87 78 80 72 51 16 5 15 32 11 8 8 8 8 10 9 6 7 8 7 9 4 10 9 15 4 13 11 12 6 13 14 27 19 29 41 42 20 19 29 38 60
94 95 92 91 88 82 53 34 13 17 9 14 12 11 5 8 11 5 10 2 10 13 12 7 10 4 3 3 6 13 6 8 12 17 26 26 30 40 42 35 38 39 55 53
105 106 103 106 110 89 69 28 17 19 10 10 15 21 19 26 8 14 7 10 10 12 12 11 13 11 9 8 6 6 3 8 13 20 30 20 32 38 40 36 26 33 44 55
117 118 116 122 104 91 50 64 35 22 19 11 12 11 18 27 22 8 19 17 13 8 9 11 8 17 16 10 10 8 6 1 6 11 15 28 11 9 22 34 28 25 40 57
122 131 126 126 119 103 76 68 49 27 13 17 16 12 35 23 17 22 8 26 11 11 15 3 12 22 24 27 27 28 8 9 4 9 11 8 9 35 20 20 26 36 52 56
130 138 135 121 104 95 95 67 60 35 7 24 20 24 16 4 17 5 14 11 12 26 10 3 8 4 4 2 4 16 26 6 4 3 6 27 19 6 7 13 54 52 32 62
142 142 118 104 91 91 94 85 74 40 14 14 21 14 19 10 8 5 6 16 27 14 4 4 7 7 7 4 2 7 13 16 9 6 3 11 9 12 21 43 34 23 69 59
131 98 93 77 75 87 94 81 72 52 20 14 29 14 20 21 11 8 14 18 10 14 6 3 5 7 4 7 10 9 2 6 18 13 12 17 20 15 44 10 31 75 72 77
99 93 78 77 84 76 73 71 60 55 17 13 33 28 19 25 25 11 25 14 6 8 11 8 8 8 9 4 6 10 10 6 8 4 2 16 10 48 19 34 65 63 75 92
88 78 94 94 74 63 60 57 61 52 19 10 33 35 36 36 33 35 50 7 16 20 7 6 3 1 1 5 5 7 8 14 7 15 13 25 63 48 59 46 45 57 74 88
78 88 72 69 68 68 62 52 51 45 20 12 24 27 40 32 39 34 23 12 24 20 12 13 4 6 6 7 10 9 9 22 12 10 8 33 51 72 36 51 61 74 66 75
72 66 70 64 62 56 49 43 44 51 23 11 10 25 41 48 45 38 35 23 38 24 23 8 5 5 16 7 10 12 14 8 13 21 32 44 39 46 45 67 70 68 67 61
60 69 68 55 56 56 56 50 47 48 22 8 11 15 22 21 36 58 55 43 32 23 12 5 6 10 3 8 6 18 27 16 9 19 42 29 43 45 68 66 63 65 74 79
63 60 55 59 58 57 54 26 60 58 52 8 5 9 20 37 38 43 57 58 35 23 14 8 11 12 18 6 6 18 36 43 50 43 46 42 55 48 39 60 63 57 58 59
59 60 58 63 64 61 51 15 17 65 53 12 1 3 10 28 31 24 25 33 20 21 13 14 12 17 21 5 13 54 48 50 50 45 44 33 32 29 46 51 52 51 49 53
62 62 61 60 63 59 61 69 20 68 54 20 6 3 4 29 17 12 20 20 20 17 13 9 10 10 17 10 31 62 53 35 33 36 34 34 38 35 41 42 46 52 49 57
56 49 45 52 55 47 61 73 43 73 28 23 12 14 9 31 12 14 14 16 6 13 8 9 14 7 12 23 39 43 47 29 22 27 33 33 28 31 38 39 42 48 53 59
53 49 29 25 28 58 43 50 51 33 26 14 5 21 7 34 15 10 16 8 6 5 11 13 6 8 45 66 63 60 56 47 40 34 32 30 30 28 33 33 37 40 45 51
54 32 21 20 52 49 32 16 15 14 9 22 18 27 15 27 9 6 11 6 5 5 9 10 4 7 23 64 68 72 65 53 48 44 37 31 30 28 29 28 31 35 38 46
44 33 41 56 18 16 12 12 12 9 15 20 15 31 31 22 24 9 13 9 6 12 6 6 7 13 50 43 48 54 52 48 42 38 34 30 27 27 27 25 28 33 36 41
48 30 24 23 16 13 19 21 7 10 9 26 30 13 27 14 14 9 8 10 11 16 5 9 12 23 32 36 41 46 46 45 44 42 36 29 26 27 25 24 27 29 32 38
29 18 15 15 12 12 9 11 13 17 33 60 55 19 8 15 9 8 10 7 9 6 2 14 13 35 34 38 46 48 50 46 43 36 31 27 27 27 25 25 25 27 30 35
18 16 14 11 12 16 20 28 28 30 55 69 23 12 13 6 8 10 8 11 11 15 13 18 33 34 35 44 52 54 52 47 41 33 28 27 27 24 23 23 23 24 27 31
18 18 8 11 11 3 10 28 21 51 58 47 16 8 8 10 9 12 15 16 16 11 9 37 32 36 41 43 47 46 43 39 32 27 26 26 24 23 22 21 20 22 24 29
15 7 22 25 14 25 27 43 45 65 61 9 8 18 16 10 7 10 10 13 23 19 19 19 24 31 34 37 40 40 35 30 27 26 24 23 23 23 22 20 19 19 21 24
Wind_Direction_500mb
249 254 258 261 265 269 268 244 239 228 194 164 212 196 207 215 205 216 250 211 214 195 169 191 224 218 79 123 173 96 217 244 270 286 285 150 125 152 141 222 283 281 276 273
243 251 255 259 256 257 254 224 231 210 189 211 223 230 241 235 185 216 211 217 190 136 179 205 189 143 148 125 138 150 190 229 316 321 111 166 39 310 290 279 263 268 276 281
244 244 253 260 251 250 236 224 239 195 203 230 177 169 223 227 198 232 184 151 128 128 192 343 186 173 210 243 185 216 193 225 216 245 280 306 300 302 300 297 288 286 280 294
245 245 245 251 251 247 219 203 229 201 193 221 179 138 147 253 212 229 210 184 203 177 180 188 202 135 25 225 256 169 173 254 246 266 271 275 272 272 279 280 277 278 289 294
247 245 247 248 242 233 204 206 188 170 159 134 181 181 199 203 227 182 218 226 193 192 191 197 176 146 174 231 130 128 156 280 312 284 264 260 285 279 278 276 284 288 291 294
246 246 244 241 227 219 200 211 211 189 166 170 173 198 193 199 197 233 209 204 139 193 218 188 229 210 194 196 175 166 202 239 18 272 316 316 309 244 312 299 291 275 300 300
246 242 242 242 235 220 205 207 199 186 223 195 201 199 205 207 210 226 168 170 140 154 145 225 270 261 251 232 233 210 211 175 178 271 3 343 229 308 295 265 281 303 300 305
246 240 238 227 212 207 201 202 198 198 221 207 196 184 184 83 185 127 153 155 166 152 126 99 358 347 45 87 148 187 201 170 261 215 204 281 292 272 344 358 308 300 307 318
236 227 217 212 207 203 206 215 215 190 120 215 194 154 182 179 155 96 104 139 149 142 108 138 155 234 217 276 337 51 169 216 201 94 206 258 244 309 355 317 289 330 329 322
209 205 202 205 203 207 214 203 205 198 170 195 179 173 184 167 131 144 144 152 168 170 150 112 161 235 205 227 169 169 177 253 227 244 245 273 257 296 330 349 313 328 327 322
204 202 206 199 196 195 204 201 185 183 173 177 195 196 177 162 168 153 158 117 190 163 187 159 206 221 208 207 191 170 176 218 214 114 201 277 181 337 333 305 315 325 327 324
193 204 195 198 199 189 192 188 193 201 186 191 226 213 215 222 214 164 167 181 146 164 159 183 105 234 233 168 254 180 229 201 195 199 226 281 301 293 304 313 327 328 325 320
190 198 203 197 182 196 200 191 179 177 181 215 217 216 227 209 196 183 152 180 174 187 152 141 173 197 177 193 226 201 249 210 234 269 251 258 299 298 313 316 324 325 324 318
197 204 189 188 193 193 195 187 181 176 165 178 201 215 218 215 207 212 210 219 191 177 178 132 159 170 202 225 227 220 225 162 243 257 278 290 287 307 319 323 326 331 332 328
195 188 191 195 193 193 201 205 198 194 192 143 152 190 214 223 217 216 212 215 195 161 148 173 202 203 223 247 241 244 222 231 217 265 284 285 288 308 316 320 331 336 337 341
195 197 199 201 197 192 189 190 217 209 209 169 170 204 206 212 206 208 212 216 204 186 172 180 215 211 193 243 237 231 247 245 247 261 278 283 295 303 306 320 329 337 341 347
197 199 204 207 205 194 193 186 187 204 205 167 188 235 189 198 193 186 184 188 186 197 204 207 211 206 205 213 251 268 271 274 275 262 268 282 285 295 311 322 332 337 347 349
202 207 208 207 204 206 212 213 183 189 181 164 166 223 162 175 160 143 168 162 180 204 203 201 198 197 205 251 242 260 268 264 252 256 256 261 282 298 314 326 331 339 347 352
207 207 209 209 210 204 213 220 193 188 179 171 159 148 198 169 146 139 152 155 155 205 215 219 175 208 213 232 237 243 257 244 246 233 255 271 275 296 315 322 332 341 348 352
205 204 202 198 188 206 204 170 175 183 206 179 164 161 150 168 159 165 128 163 196 190 224 181 194 242 243 250 250 257 261 256 250 246 256 254 271 301 314 323 332 337 342 348
203 193 188 167 159 162 173 166 166 159 168 186 154 176 137 177 144 147 177 173 176 195 243 166 245 263 239 247 247 251 251 248 248 255 260 270 286 299 307 313 325 334 342 348
208 190 148 154 180 178 169 164 151 181 202 154 153 168 158 158 159 123 176 181 164 225 135 106 260 242 251 239 235 236 239 239 242 247 253 263 276 290 295 306 318 328 337 343
171 181 163 164 179 191 177 169 186 155 155 168 161 145 151 131 158 139 164 167 208 115 95 223 224 252 229 220 225 224 227 231 240 241 248 260 272 282 291 296 307 320 331 339
193 171 189 194 168 186 182 171 151 169 162 162 155 126 140 152 166 146 161 163 125 136 231 231 237 239 236 228 223 220 228 234 234 240 252 264 272 276 281 288 300 313 325 336
200 174 201 184 148 143 180 189 153 163 172 147 136 107 131 158 173 172 124 171 206 204 216 234 243 248 245 229 220 223 226 224 226 235 249 260 265 267 273 281 292 308 321 329
208 203 126 122 122 50 142 171 163 167 158 153 127 131 167 184 176 167 192 163 215 227 212 236 229 239 238 227 218 219 218 218 223 236 247 252 256 262 265 272 287 304 316 327
189 157 166 168 167 179 181 185 187 173 154 157 143 179 187 126 191 193 186 205 231 229 216 213 229 232 223 210 204 206 209 217 229 235 240 243 249 252 254 265 284 302 319 331
Wind_Speed_850mb
70 67 65 60 57 52 42 27 5 16 24 9 6 7 11 4 8 10 8 7 14 13 12 9 8 11 5 10 3 6 1 4 10 21 33 6 15 10 6 2 19 23 30 47
75 74 75 72 71 60 45 15 20 20 35 9 8 6 6 7 8 8 7 10 6 5 12 6 11 9 18 15 7 10 7 5 9 19 5 0 8 15 22 22 24 32 26 27
87 86 87 78 80 72 51 16 5 15 32 11 8 8 8 8 10 9 6 7 8 7 9 4 10 9 15 4 13 11 12 6 13 14 27 19 29 41 42 20 19 29 38 60
94 95 92 91 88 82 53 34 13 17 9 14 12 11 5 8 11 5 10 2 10 13 12 7 10 4 3 3 6 13 6 8 12 17 26 26 30 40 42 35 38 39 55 53
105 106 103 106 110 89 69 28 17 19 10 10 15 21 19 26 8 14 7 10 10 12 12 11 13 11 9 8 6 6 3 8 13 20 30 20 32 38 40 36 26 33 44 55
117 118 116 122 104 91 50 64 35 22 19 11 12 11 18 27 22 8 19 17 13 8 9 11 8 17 16 10 10 8 6 1 6 11 15 28 11 9 22 34 28 25 40 57
122 131 126 126 119 103 76 68 49 27 13 17 16 12 35 23 17 22 8 26 11 11 15 3 12 22 24 27 27 28 8 9 4 9 11 8 9 35 20 20 26 36 52 56
130 138 135 121 104 95 95 67 60 35 7 24 20 24 16 4 17 5 14 11 12 26 10 3 8 4 4 2 4 16 26 6 4 3 6 27 19 6 7 13 54 52 32 62
142 142 118 104 91 91 94 85 74 40 14 14 21 14 19 10 8 5 6 16 27 14 4 4 7 7 7 4 2 7 13 16 9 6 3 11 9 12 21 43 34 23 69 59
131 98 93 77 75 87 94 81 72 52 20 14 29 14 20 21 11 8 14 18 10 14 6 3 5 7 4 7 10 9 2 6 18 13 12 17 20 15 44 10 31 75 72 77
99 93 78 77 84 76 73 71 60 55 17 13 33 28 19 25 25 11 25 14 6 8 11 8 8 8 9 4 6 10 10 6 8 4 2 16 10 48 19 34 65 63 75 92
88 78 94 94 74 63 60 57 61 52 19 10 33 35 36 36 33 35 50 7 16 20 7 6 3 1 1 5 5 7 8 14 7 15 13 25 63 48 59 46 45 57 74 88
78 88 72 69 68 68 62 52 51 45 20 12 24 27 40 32 39 34 23 12 24 20 12 13 4 6 6 7 10 9 9 22 12 10 8 33 51 72 36 51 61 74 66 75
72 66 70 64 62 56 49 43 44 51 23 11 10 25 41 48 45 38 35 23 38 24 23 8 5 5 16 7 10 12 14 8 13 21 32 44 39 46 45 67 70 68 67 61
60 69 68 55 56 56 56 50 47 48 22 8 11 15 22 21 36 58 55 43 32 23 12 5 6 10 3 8 6 18 27 16 9 19 42 29 43 45 68 66 63 65 74 79
63 60 55 59 58 57 54 26 60 58 52 8 5 9 20 37 38 43 57 58 35 23 14 8 11 12 18 6 6 18 36 43 50 43 46 42 55 48 39 60 63 57 58 59
59 60 58 63 64 61 51 15 17 65 53 12 1 3 10 28 31 24 25 33 20 21 13 14 12 17 21 5 13 54 48 50 50 45 44 33 32 29 46 51 52 51 49 53
62 62 61 60 63 59 61 69 20 68 54 20 6 3 4 29 17 12 20 20 20 17 13 9 10 10 17 10 31 62 53 35 33 36 34 34 38 35 41 42 46 52 49 57
56 49 45 52 55 47 61 73 43 73 28 23 12 14 9 31 12 14 14 16 6 13 8 9 14 7 12 23 39 43 47 29 22 27 33 33 28 31 38 39 42 48 53 59
53 49 29 25 28 58 43 50 51 33 26 14 5 21 7 34 15 10 16 8 6 5 11 13 6 8 45 66 63 60 56 47 40 34 32 30 30 28 33 33 37 40 45 51
54 32 21 20 52 49 32 16 15 14 9 22 18 27 15 27 9 6 11 6 5 5 9 10 4 7 23 64 68 72 65 53 48 44 37 31 30 28 29 28 31 35 38 46
44 33 41 56 18 16 12 12 12 9 15 20 15 31 31 22 24 9 13 9 6 12 6 6 7 13 50 43 48 54 52 48 42 38 34 30 27 27 27 25 28 33 36 41
48 30 24 23 16 13 19 21 7 10 9 26 30 13 27 14 14 9 8 10 11 16 5 9 12 23 32 36 41 46 46 45 44 42 36 29 26 27 25 24 27 29 32 38
29 18 15 15 12 12 9 11 13 17 33 60 55 19 8 15 9 8 10 7 9 6 2 14 13 35 34 38 46 48 50 46 43 36 31 27 27 27 25 25 25 27 30 35
18 16 14 11 12 16 20 28 28 30 55 69 23 12 13 6 8 10 8 11 11 15 13 18 33 34 35 44 52 54 52 47 41 33 28 27 27 24 23 23 23 24 27 31
18 18 8 11 11 3 10 28 21 51 58 47 16 8 8 10 9 12 15 16 16 11 9 37 32 36 41 43 47 46 43 39 32 27 26 26 24 23 22 21 20 22 24 29
15 7 22 25 14 25 27 43 45 65 61 9 8 18 16 10 7 10 10 13 23 19 19 19 24 31 34 37 40 40 35 30 27 26 24 23 23 23 22 20 19 19 21 24
Wind_Direction_850mb
249 254 258 261 265 269 268 244 239 228 194 164 212 196 207 215 205 216 250 211 214 195 169 191 224 218 79 123 173 96 217 244 270 286 285 150 125 152 141 222 283 281 276 273
243 251 255 259 256 257 254 224 231 210 189 211 223 230 241 235 185 216 211 217 190 136 179 205 189 143 148 125 138 150 190 229 316 321 111 166 39 310 290 279 263 268 276 281
244 244 253 260 251 250 236 224 239 195 203 230 177 169 223 227 198 232 184 151 128 128 192 343 186 173 210 243 185 216 193 225 216 245 280 306 300 302 300 297 288 286 280 294
245 245 245 251 251 247 219 203 229 201 193 221 179 138 147 253 212 229 210 184 203 177 180 188 202 135 25 225 256 169 173 254 246 266 271 275 272 272 279 280 277 278 289 294
247 245 247 248 242 233 204 206 188 170 159 134 181 181 199 203 227 182 218 226 193 192 191 197 176 146 174 231 130 128 156 280 312 284 264 260 285 279 278 276 284 288 291 294
246 246 244 241 227 219 200 211 211 189 166 170 173 198 193 199 197 233 209 204 139 193 218 188 229 210 194 196 175 166 202 239 18 272 316 316 309 244 312 299 291 275 300 300
246 242 242 242 235 220 205 207 199 186 223 195 201 199 205 207 210 226 168 170 140 154 145 225 270 261 251 232 233 210 211 175 178 271 3 343 229 308 295 265 281 303 300 305
246 240 238 227 212 207 201 202 198 198 221 207 196 184 184 83 185 127 153 155 166 152 126 99 358 347 45 87 148 187 201 170 261 215 204 281 292 272 344 358 308 300 307 318
236 227 217 212 207 203 206 215 215 190 120 215 194 154 182 179 155 96 104 139 149 142 108 138 155 234 217 276 337 51 169 216 201 94 206 258 244 309 355 317 289 330 329 322
209 205 202 205 203 207 214 203 205 198 170 195 179 173 184 167 131 144 144 152 168 170 150 112 161 235 205 227 169 169 177 253 227 244 245 273 257 296 330 349 313 328 327 322
204 202 206 199 196 195 204 201 185 183 173 177 195 196 177 162 168 153 158 117 190 163 187 159 206 221 208 207 191 170 176 218 214 114 201 277 181 337 333 305 315 325 327 324
193 204 195 198 199 189 192 188 193 201 186 191 226 213 215 222 214 164 167 181 146 164 159 183 105 234 233 168 254 180 229 201 195 199 226 281 301 293 304 313 327 328 325 320
190 198 203 197 182 196 200 191 179 177 181 215 217 216 227 209 196 183 152 180 174 187 152 141 173 197 177 193 226 201 249 210 234 269 251 258 299 298 313 316 324 325 324 318
197 204 189 188 193 193 195 187 181 176 165 178 201 215 218 215 207 212 210 219 191 177 178 132 159 170 202 225 227 220 225 162 243 257 278 290 287 307 319 323 326 331 332 328
195 188 191 195 193 193 201 205 198 194 192 143 152 190 214 223 217 216 212 215 195 161 148 173 202 203 223 247 241 244 222 231 217 265 284 285 288 308 316 320 331 336 337 341
195 197 199 201 197 192 189 190 217 209 209 169 170 204 206 212 206 208 212 216 204 186 172 180 215 211 193 243 237 231 247 245 247 261 278 283 295 303 306 320 329 337 341 347
197 199 204 207 205 194 193 186 187 204 205 167 188 235 189 198 193 186 184 188 186 197 204 207 211 206 205 213 251 268 271 274 275 262 268 282 285 295 311 322 332 337 347 349
202 207 208 207 204 206 212 213 183 189 181 164 166 223 162 175 160 143 168 162 180 204 203 201 198 197 205 251 242 260 268 264 252 256 256 261 282 298 314 326 331 339 347 352
207 207 209 209 210 204 213 220 193 188 179 171 159 148 198 169 146 139 152 155 155 205 215 219 175 208 213 232 237 243 257 244 246 233 255 271 275 296 315 322 332 341 348 352
205 204 202 198 188 206 204 170 175 183 206 179 164 161 150 168 159 165 128 163 196 190 224 181 194 242 243 250 250 257 261 256 250 246 256 254 271 301 314 323 332 337 342 348
203 193 188 167 159 162 173 166 166 159 168 186 154 176 137 177 144 147 177 173 176 195 243 166 245 263 239 247 247 251 251 248 248 255 260 270 286 299 307 313 325 334 342 348
208 190 148 154 180 178 169 164 151 181 202 154 153 168 158 158 159 123 176 181 164 225 135 106 260 242 251 239 235 236 239 239 242 247 253 263 276 290 295 306 318 328 337 343
171 181 163 164 179 191 177 169 186 155 155 168 161 145 151 131 158 139 164 167 208 115 95 223 224 252 229 220 225 224 227 231 240 241 248 260 272 282 291 296 307 320 331 339
193 171 189 194 168 186 182 171 151 169 162 162 155 126 140 152 166 146 161 163 125 136 231 231 237 239 236 228 223 220 228 234 234 240 252 264 272 276 281 288 300 313 325 336
200 174 201 184 148 143 180 189 153 163 172 147 136 107 131 158 173 172 124 171 206 204 216 234 243 248 245 229 220 223 226 224 226 235 249 260 265 267 273 281 292 308 321 329
208 203 126 122 122 50 142 171 163 167 158 153 127 131 167 184 176 167 192 163 215 227 212 236 229 239 238 227 218 219 218 218 223 236 247 252 256 262 265 272 287 304 316 327
189 157 166 168 167 179 181 185 187 173 154 157 143 179 187 126 191 193 186 205 231 229 216 213 229 232 223 210 204 206 209 217 229 235 240 243 249 252 254 265 284 302 319 331